Location: Tamazert
(32.6352°N, 5.2072°W)
Time: 04:58:53
(UTC+00:00)

Vanguard 2 - Pass Details

Date: 09 October 2022
Orbit: 553 x 2933 km, 32.9° (Epoch: 04 December)

Event Time Altitude Azimuth Distance (km) Brightness Sun altitude
Rises 18:53:00 0° 280° (W) 6,200 14.0 -12.9°
Reaches altitude 10° 18:57:47 10° 270° (W) 5,438 13.3 -13.9°
Maximum altitude 19:10:38 27° 220° (SW) 4,449 11.8 -16.7°
Drops below altitude 10° 19:23:50 10° 170° (S) 5,519 11.7 -19.4°
Sets 19:28:51 0° 159° (SSE) 6,297 11.9 -20.5°
